Terminal Aerodrome Forecast
Issued by NWS

Home | Current Version | Previous Version | Text Only | Print | Product List | Glossary On
Versions: 1 2 3 4 5 6 7 8 9 10 11 12 13 14 15 16 17 18 19 20 21 22 23 24 25 26
000
FTAK31 PANC 211740
TAFAVD
TAF
PAVD 211740Z 2118/2218 00000KT 3SM BR SCT005 BKN015
      TEMPO 2118/2120 1/2SM FG BKN003
     FM212000 VRB03KT P6SM VCFG FEW005 SCT020 SCT050
      TEMPO 2120/2122 3SM BR SCT005 BKN020
     FM212200 02008G15KT P6SM FEW100
     FM220800 05015G30KT P6SM SCT100
      AMD LTD TO CLD VIS AND WIND=

USA.gov is the U.S. government's official web portal to all federal, state and local government web resources and services.